Lafayette, LA

6:31 PM CDT on April 25, 2017 (GMT -0500)
Lafayette Regional

Weather History for KLFT - January, 2013

Change the Weather History Date:

Thursday, January 17, 2013

  Actual Average Record
Temperature  
Mean Temperature 45 °F 52 °F  
Max Temperature 56 °F 62 °F 81 °F (1935)
Min Temperature 33 °F 43 °F 19 °F (1982)
Degree Days  
Heating Degree Days 20 13  
Month to date heating degree days 222 221  
Since 1 July heating degree days 712 775  
Moisture  
Dew Point 32 °F    
Average Humidity 65    
Maximum Humidity 92    
Minimum Humidity 38    
Precipitation  
Precipitation 0.00 in 0.19 in 2.10 in (1931)
Month to date precipitation 10.43 3.12  
Year to date precipitation 10.43 3.12  
Snow  
Snow 0.00 in 0.00 in 0.00 in ()
Month to date snowfall 0.0 0.0  
Since 1 July snowfall 0.0 0.0  
Snow Depth 0.00 in    
Sea Level Pressure  
Sea Level Pressure 30.34 in    
Wind  
Wind Speed 6 mph (NW)    
Max Wind Speed 17 mph    
Max Gust Speed 24 mph    
Visibility 10 miles    
Events      
T = Trace of Precipitation, MM = Missing Value Source: NWS Daily Summary

Daily Weather History Graph

Daily Weather History Graph

Search for Another Location

Airport or City:

Trip Planner

Search our weather history database for the weather conditions in past years. The results will help you decide how hot, cold, wet, or windy it might be!

Date:

Astronomy

Jan. 17, 2013 Rise Set
Actual Time 7:04 AM CST 5:32 PM CST
Civil Twilight 6:38 AM CST 5:57 PM CST
Nautical Twilight 6:09 AM CST 6:27 PM CST
Astronomical Twilight 5:40 AM CST 6:55 PM CST
Moon 10:42 AM CST (1/17) 11:50 PM CST (1/17)
Length of Visible Light 11h 19m
Length of Day
10h 27m
Waxing Crescent, 38% of the Moon is Illuminated
Jan 17
Waxing Crescent
Jan 18
First Quarter
Jan 26
Full
Feb 3
Last Quarter
Feb 10
New

Hourly Weather History & Observations

Time (CST) Temp. Windchill Dew Point Humidity Pressure Visibility Wind Dir Wind Speed Gust Speed Precip Events Conditions
12:53 AM 37.9 °F 35.5 °F 35.1 °F 89% 30.23 in 10.0 mi WNW 3.5 mph - N/A   Mostly Cloudy
1:53 AM 36.0 °F - 34.0 °F 93% 30.23 in 7.0 mi Calm Calm - N/A   Clear
2:53 AM 36.0 °F 31.1 °F 34.0 °F 93% 30.24 in 7.0 mi West 5.8 mph - N/A   Clear
3:53 AM 36.0 °F 29.6 °F 32.0 °F 86% 30.25 in 10.0 mi WNW 8.1 mph - N/A   Clear
4:53 AM 35.1 °F 31.0 °F 30.0 °F 82% 30.26 in 10.0 mi WNW 4.6 mph - N/A   Clear
5:53 AM 35.6 °F 30.7 °F 28.4 °F 75% 30.28 in 10.0 mi NW 5.8 mph - N/A   Clear
6:53 AM 34.0 °F 29.8 °F 28.0 °F 79% 30.29 in 10.0 mi NW 4.6 mph - N/A   Clear
7:53 AM 35.1 °F 29.3 °F 28.9 °F 78% 30.32 in 10.0 mi WNW 6.9 mph - N/A   Clear
8:53 AM 39.0 °F 32.8 °F 30.0 °F 70% 30.35 in 10.0 mi WNW 9.2 mph - N/A   Clear
9:53 AM 44.1 °F 38.6 °F 30.9 °F 60% 30.38 in 10.0 mi NW 10.4 mph - N/A   Clear
10:53 AM 46.9 °F - 30.9 °F 54% 30.37 in 10.0 mi NNW 11.5 mph - N/A   Clear
11:53 AM 51.1 °F - 28.0 °F 41% 30.35 in 10.0 mi NNW 13.8 mph - N/A   Clear
12:53 PM 52.0 °F - 28.9 °F 41% 30.32 in 10.0 mi NNW 9.2 mph 17.3 mph N/A   Clear
1:53 PM 54.0 °F - 30.0 °F 40% 30.30 in 10.0 mi NNW 15.0 mph - N/A   Clear
2:53 PM 55.0 °F - 30.9 °F 40% 30.30 in 10.0 mi NNW 15.0 mph 19.6 mph N/A   Clear
3:53 PM 55.9 °F - 32.0 °F 40% 30.31 in 10.0 mi North 10.4 mph 16.1 mph N/A   Clear
4:53 PM 54.0 °F - 32.0 °F 43% 30.34 in 10.0 mi North 10.4 mph - N/A   Clear
5:53 PM 48.9 °F - 33.1 °F 54% 30.38 in 10.0 mi North 4.6 mph - N/A   Clear
6:53 PM 48.0 °F - 33.1 °F 56% 30.40 in 10.0 mi Calm Calm - N/A   Clear
7:53 PM 45.0 °F - 37.9 °F 76% 30.43 in 10.0 mi Calm Calm - N/A   Clear
8:53 PM 44.1 °F - 37.0 °F 76% 30.45 in 10.0 mi Calm Calm - N/A   Clear
9:53 PM 39.9 °F - 35.1 °F 83% 30.45 in 10.0 mi Calm Calm - N/A   Clear
10:53 PM 39.9 °F - 35.1 °F 83% 30.46 in 10.0 mi Calm Calm - N/A   Clear
11:53 PM 37.0 °F 34.5 °F 34.0 °F 89% 30.45 in 10.0 mi NNW 3.5 mph - N/A   Clear